Time,TemperatureF,DewpointF,PressureIn,WindDirection,WindDirectionDegrees,WindSpeedMPH,WindSpeedGustMPH,Humidity,HourlyPrecipIn,Conditions,Clouds,dailyrainin,SoftwareType,DateUTC
2013-06-04 00:00:00,40.0,17.0,-100.00,WSW,255,10.0,19.0,38,-99.99,,,-99.99,,2013-06-04 06:00:00,
2013-06-04 00:42:00,40.0,17.0,-100.00,WSW,255,10.0,19.0,38,-99.99,,,-99.99,,2013-06-04 06:42:00,
2013-06-04 00:52:00,40.0,17.0,-100.00,WSW,255,10.0,19.0,38,-99.99,,,-99.99,,2013-06-04 06:52:00,
2013-06-04 01:00:00,39.0,19.0,-100.00,West,277,10.0,16.0,43,-99.99,,,-99.99,,2013-06-04 07:00:00,
2013-06-04 01:42:00,39.0,19.0,-100.00,West,277,10.0,16.0,43,-99.99,,,-99.99,,2013-06-04 07:42:00,
2013-06-04 01:52:00,39.0,19.0,-100.00,West,277,10.0,16.0,43,-99.99,,,-99.99,,2013-06-04 07:52:00,
2013-06-04 02:00:00,38.0,20.0,-100.00,West,264,8.0,15.0,48,-99.99,,,-99.99,,2013-06-04 08:00:00,
2013-06-04 02:42:00,38.0,20.0,-100.00,West,264,8.0,15.0,48,-99.99,,,-99.99,,2013-06-04 08:42:00,
2013-06-04 02:52:00,38.0,20.0,-100.00,West,264,8.0,15.0,48,-99.99,,,-99.99,,2013-06-04 08:52:00,
2013-06-04 03:00:00,38.0,21.0,-100.00,WSW,256,8.0,15.0,50,-99.99,,,-99.99,,2013-06-04 09:00:00,
2013-06-04 03:43:00,38.0,21.0,-100.00,WSW,256,8.0,15.0,50,-99.99,,,-99.99,,2013-06-04 09:43:00,
2013-06-04 03:53:00,38.0,21.0,-100.00,WSW,256,8.0,15.0,50,-99.99,,,-99.99,,2013-06-04 09:53:00,
2013-06-04 04:00:00,38.0,21.0,-100.00,WNW,291,8.0,11.0,50,-99.99,,,-99.99,,2013-06-04 10:00:00,
2013-06-04 04:42:00,38.0,21.0,-100.00,WNW,291,8.0,11.0,50,-99.99,,,-99.99,,2013-06-04 10:42:00,
2013-06-04 04:53:00,38.0,21.0,-100.00,WNW,291,8.0,11.0,50,-99.99,,,-99.99,,2013-06-04 10:53:00,
2013-06-04 05:00:00,38.0,20.0,-100.00,NW,311,5.0,9.0,48,-99.99,,,-99.99,,2013-06-04 11:00:00,
2013-06-04 05:43:00,38.0,20.0,-100.00,NW,311,5.0,9.0,48,-99.99,,,-99.99,,2013-06-04 11:43:00,
2013-06-04 05:52:00,38.0,20.0,-100.00,NW,311,5.0,9.0,48,-99.99,,,-99.99,,2013-06-04 11:52:00,
2013-06-04 06:00:00,39.0,18.0,-100.00,WNW,283,7.0,10.0,44,-99.99,,,-99.99,,2013-06-04 12:00:00,
2013-06-04 06:42:00,39.0,18.0,-100.00,WNW,283,7.0,10.0,44,-99.99,,,-99.99,,2013-06-04 12:42:00,
2013-06-04 06:52:00,39.0,18.0,-100.00,WNW,283,7.0,10.0,44,-99.99,,,-99.99,,2013-06-04 12:52:00,
2013-06-04 07:00:00,39.0,18.0,-100.00,WSW,247,6.0,9.0,42,-99.99,,,-99.99,,2013-06-04 13:00:00,
2013-06-04 07:42:00,39.0,18.0,-100.00,WSW,247,6.0,9.0,42,-99.99,,,-99.99,,2013-06-04 13:42:00,
2013-06-04 07:52:00,39.0,18.0,-100.00,WSW,247,6.0,9.0,42,-99.99,,,-99.99,,2013-06-04 13:52:00,
2013-06-04 08:00:00,39.0,19.0,-100.00,SSW,196,9.0,30.0,44,-99.99,,,-99.99,,2013-06-04 14:00:00,
2013-06-04 08:43:00,39.0,19.0,-100.00,SSW,196,9.0,30.0,44,-99.99,,,-99.99,,2013-06-04 14:43:00,
2013-06-04 08:52:00,39.0,19.0,-100.00,SSW,196,9.0,30.0,44,-99.99,,,-99.99,,2013-06-04 14:52:00,
2013-06-04 09:00:00,39.0,21.0,-100.00,SSW,213,5.0,22.0,49,-99.99,,,-99.99,,2013-06-04 15:00:00,
2013-06-04 09:42:00,39.0,21.0,-100.00,SSW,213,5.0,22.0,49,-99.99,,,-99.99,,2013-06-04 15:42:00,
2013-06-04 09:53:00,39.0,21.0,-100.00,SSW,213,5.0,22.0,49,-99.99,,,-99.99,,2013-06-04 15:53:00,
2013-06-04 10:00:00,41.0,21.0,-100.00,South,170,8.0,19.0,46,-99.99,,,-99.99,,2013-06-04 16:00:00,
2013-06-04 10:42:00,41.0,21.0,-100.00,South,170,8.0,19.0,46,-99.99,,,-99.99,,2013-06-04 16:42:00,
2013-06-04 10:53:00,41.0,21.0,-100.00,South,170,8.0,19.0,46,-99.99,,,-99.99,,2013-06-04 16:53:00,
2013-06-04 11:00:00,41.0,24.0,-100.00,WSW,238,8.0,52.0,50,-99.99,,,-99.99,,2013-06-04 17:00:00,
2013-06-04 11:42:00,41.0,24.0,-100.00,WSW,238,8.0,52.0,50,-99.99,,,-99.99,,2013-06-04 17:42:00,
2013-06-04 11:52:00,41.0,24.0,-100.00,WSW,238,8.0,52.0,50,-99.99,,,-99.99,,2013-06-04 17:52:00,
2013-06-04 12:00:00,42.0,24.0,-100.00,SW,217,9.0,24.0,48,-99.99,,,-99.99,,2013-06-04 18:00:00,
2013-06-04 12:42:00,42.0,24.0,-100.00,SW,217,9.0,24.0,48,-99.99,,,-99.99,,2013-06-04 18:42:00,
2013-06-04 12:52:00,42.0,24.0,-100.00,SW,217,9.0,24.0,48,-99.99,,,-99.99,,2013-06-04 18:52:00,
2013-06-04 13:00:00,42.0,22.0,-100.00,SSW,210,17.0,40.0,45,-99.99,,,-99.99,,2013-06-04 19:00:00,
2013-06-04 13:42:00,42.0,22.0,-100.00,SSW,210,17.0,40.0,45,-99.99,,,-99.99,,2013-06-04 19:42:00,
2013-06-04 13:52:00,42.0,22.0,-100.00,SSW,210,17.0,40.0,45,-99.99,,,-99.99,,2013-06-04 19:52:00,
2013-06-04 14:00:00,46.0,20.0,-100.00,SW,221,11.0,27.0,35,-99.99,,,-99.99,,2013-06-04 20:00:00,
2013-06-04 14:42:00,46.0,20.0,-100.00,SW,221,11.0,27.0,35,-99.99,,,-99.99,,2013-06-04 20:42:00,
2013-06-04 14:53:00,46.0,20.0,-100.00,SW,221,11.0,27.0,35,-99.99,,,-99.99,,2013-06-04 20:53:00,
2013-06-04 15:00:00,48.0,18.0,-100.00,SSW,203,16.0,32.0,30,-99.99,,,-99.99,,2013-06-04 21:00:00,
2013-06-04 15:42:00,48.0,18.0,-100.00,SSW,203,16.0,32.0,30,-99.99,,,-99.99,,2013-06-04 21:42:00,
2013-06-04 15:53:00,48.0,18.0,-100.00,SSW,203,16.0,32.0,30,-99.99,,,-99.99,,2013-06-04 21:53:00,
2013-06-04 16:00:00,49.0,17.0,-100.00,SW,220,12.0,26.0,28,-99.99,,,-99.99,,2013-06-04 22:00:00,
2013-06-04 16:42:00,49.0,17.0,-100.00,SW,220,12.0,26.0,28,-99.99,,,-99.99,,2013-06-04 22:42:00,
2013-06-04 16:52:00,49.0,17.0,-100.00,SW,220,12.0,26.0,28,-99.99,,,-99.99,,2013-06-04 22:52:00,
2013-06-04 17:00:00,48.0,19.0,-100.00,West,270,10.0,22.0,31,-99.99,,,-99.99,,2013-06-04 23:00:00,
2013-06-04 17:42:00,48.0,19.0,-100.00,West,270,10.0,22.0,31,-99.99,,,-99.99,,2013-06-04 23:42:00,
2013-06-04 17:52:00,48.0,19.0,-100.00,West,270,10.0,22.0,31,-99.99,,,-99.99,,2013-06-04 23:52:00,
2013-06-04 18:00:00,49.0,18.0,-100.00,WSW,253,9.0,20.0,29,-99.99,,,-99.99,,2013-06-05 00:00:00,
2013-06-04 18:42:00,49.0,18.0,-100.00,WSW,253,9.0,20.0,29,-99.99,,,-99.99,,2013-06-05 00:42:00,
2013-06-04 18:52:00,49.0,18.0,-100.00,WSW,253,9.0,20.0,29,-99.99,,,-99.99,,2013-06-05 00:52:00,
2013-06-04 19:00:00,48.0,16.0,-100.00,SW,216,14.0,27.0,28,-99.99,,,-99.99,,2013-06-05 01:00:00,
2013-06-04 19:42:00,48.0,16.0,-100.00,SW,216,14.0,27.0,28,-99.99,,,-99.99,,2013-06-05 01:42:00,
2013-06-04 19:52:00,48.0,16.0,-100.00,SW,216,14.0,27.0,28,-99.99,,,-99.99,,2013-06-05 01:52:00,
2013-06-04 20:00:00,47.0,17.0,-100.00,WSW,238,11.0,25.0,30,-99.99,,,-99.99,,2013-06-05 02:00:00,
2013-06-04 20:42:00,47.0,17.0,-100.00,WSW,238,11.0,25.0,30,-99.99,,,-99.99,,2013-06-05 02:42:00,
2013-06-04 20:52:00,47.0,17.0,-100.00,WSW,238,11.0,25.0,30,-99.99,,,-99.99,,2013-06-05 02:52:00,
2013-06-04 21:00:00,44.0,15.0,-100.00,SW,224,10.0,20.0,30,-99.99,,,-99.99,,2013-06-05 03:00:00,
2013-06-04 21:43:00,44.0,15.0,-100.00,SW,224,10.0,20.0,30,-99.99,,,-99.99,,2013-06-05 03:43:00,
2013-06-04 21:53:00,44.0,15.0,-100.00,SW,224,10.0,20.0,30,-99.99,,,-99.99,,2013-06-05 03:53:00,
2013-06-04 22:00:00,43.0,14.0,-100.00,SSW,212,13.0,27.0,30,-99.99,,,-99.99,,2013-06-05 04:00:00,
2013-06-04 22:42:00,43.0,14.0,-100.00,SSW,212,13.0,27.0,30,-99.99,,,-99.99,,2013-06-05 04:42:00,
2013-06-04 22:53:00,43.0,14.0,-100.00,SSW,212,13.0,27.0,30,-99.99,,,-99.99,,2013-06-05 04:53:00,
2013-06-04 23:00:00,42.0,14.0,-100.00,SW,226,12.0,24.0,32,-99.99,,,-99.99,,2013-06-05 05:00:00,
2013-06-04 23:42:00,42.0,14.0,-100.00,SW,226,12.0,24.0,32,-99.99,,,-99.99,,2013-06-05 05:42:00,
2013-06-04 23:52:00,42.0,14.0,-100.00,SW,226,12.0,24.0,32,-99.99,,,-99.99,,2013-06-05 05:52:00,